FLI588 EKVG-EGFF

Flight info

Callsign FLI588
Flight time 1h 39m
Altitude 37000
Route RAKUP DCT DOSUN DCT ULLAP DCT FOYLE DCT BELOX DCT WEVBE
Aircraft A320/M-SDE3FGHIRWY/LB1

Departure

Time 2026-05-04 20:24
Airport Vágar Airport (EKVG)

Arrival

Time 2026-05-04 22:03
Airport Cardiff International Airport (EGFF)
Time Latitude Longitude Altitude Speed Heading
2026-05-04 19:55 62.06686 -7.27945 279 ft 0 kts 29°
2026-05-04 20:16 62.06669 -7.27961 282 ft 4 kts 355°
2026-05-04 20:16 62.06646 -7.27939 282 ft 4 kts 310°
2026-05-04 20:16 62.06631 -7.27893 286 ft 3 kts 298°
2026-05-04 20:16 62.06630 -7.27887 279 ft 0 kts 297°
2026-05-04 20:19 62.06636 -7.27916 283 ft 7 kts 295°
2026-05-04 20:19 62.06652 -7.28033 279 ft 9 kts 269°
2026-05-04 20:19 62.06605 -7.28087 278 ft 8 kts 182°
2026-05-04 20:20 62.06549 -7.28109 278 ft 7 kts 197°
2026-05-04 20:20 62.06519 -7.28134 281 ft 2 kts 202°
2026-05-04 20:20 62.06494 -7.28152 280 ft 8 kts 193°
2026-05-04 20:20 62.06442 -7.28052 281 ft 13 kts 118°
2026-05-04 20:21 62.06397 -7.27872 284 ft 14 kts 117°
2026-05-04 20:21 62.06348 -7.27671 288 ft 17 kts 117°
2026-05-04 20:21 62.06205 -7.27101 278 ft 26 kts 118°
2026-05-04 20:22 62.06117 -7.26747 264 ft 29 kts 118°
2026-05-04 20:22 62.06021 -7.26359 250 ft 26 kts 118°
2026-05-04 20:22 62.05955 -7.26094 241 ft 10 kts 112°
2026-05-04 20:22 62.05943 -7.26012 241 ft 2 kts 192°
2026-05-04 20:23 62.05946 -7.26056 241 ft 5 kts 292°
2026-05-04 20:23 62.05948 -7.26065 241 ft 0 kts 298°
2026-05-04 20:23 62.05950 -7.26075 241 ft 5 kts 298°
2026-05-04 20:23 62.06086 -7.26622 260 ft 80 kts 298°
2026-05-04 20:24 62.06454 -7.28091 334 ft 139 kts 300°
2026-05-04 20:24 62.06912 -7.29924 1146 ft 140 kts 300°
2026-05-04 20:24 62.07360 -7.31781 2076 ft 142 kts 296°
2026-05-04 20:24 62.07725 -7.33916 2331 ft 167 kts 291°
2026-05-04 20:25 62.08110 -7.36443 2584 ft 192 kts 290°
2026-05-04 20:25 62.08540 -7.39314 2996 ft 211 kts 290°
2026-05-04 20:25 62.08990 -7.42340 3782 ft 216 kts 289°
2026-05-04 20:25 62.09415 -7.45383 4622 ft 219 kts 284°
2026-05-04 20:26 62.09577 -7.48636 5451 ft 223 kts 272°
2026-05-04 20:26 62.09399 -7.51961 6275 ft 229 kts 260°
2026-05-04 20:26 62.08870 -7.55205 7063 ft 235 kts 248°
2026-05-04 20:26 62.07987 -7.58200 7825 ft 243 kts 235°
2026-05-04 20:27 62.06753 -7.60759 8600 ft 252 kts 221°
2026-05-04 20:27 62.05216 -7.62671 9378 ft 261 kts 207°
2026-05-04 20:27 62.03436 -7.63737 10116 ft 271 kts 192°
2026-05-04 20:27 62.01525 -7.63773 10807 ft 280 kts 175°
2026-05-04 20:28 61.99624 -7.62678 11492 ft 288 kts 159°
2026-05-04 20:28 61.97824 -7.60640 12000 ft 302 kts 153°
2026-05-04 20:28 61.95918 -7.58389 12188 ft 325 kts 153°
2026-05-04 20:28 61.93864 -7.55986 12345 ft 348 kts 153°
2026-05-04 20:29 61.91689 -7.53456 12685 ft 363 kts 154°
2026-05-04 20:29 61.89454 -7.50855 13295 ft 369 kts 154°
2026-05-04 20:29 61.87214 -7.48246 13937 ft 374 kts 154°
2026-05-04 20:29 61.84917 -7.45580 14484 ft 379 kts 155°
2026-05-04 20:30 61.82580 -7.42872 15005 ft 386 kts 155°
2026-05-04 20:30 61.80206 -7.40126 15516 ft 392 kts 156°
2026-05-04 20:30 61.77796 -7.37347 16024 ft 398 kts 156°
2026-05-04 20:30 61.76177 -7.35479 16360 ft 402 kts 157°
2026-05-04 20:31 61.72859 -7.31649 17023 ft 410 kts 158°
2026-05-04 20:31 61.71194 -7.29725 17351 ft 414 kts 158°
2026-05-04 20:31 61.68647 -7.26791 17844 ft 420 kts 159°
2026-05-04 20:31 61.66058 -7.23826 18341 ft 426 kts 159°
2026-05-04 20:32 61.63438 -7.20841 18770 ft 431 kts 159°
2026-05-04 20:32 61.60783 -7.17828 19228 ft 436 kts 160°
2026-05-04 20:32 61.58101 -7.14785 19681 ft 440 kts 159°
2026-05-04 20:32 61.55394 -7.11705 20142 ft 445 kts 159°
2026-05-04 20:33 61.52662 -7.08594 20606 ft 449 kts 160°
2026-05-04 20:33 61.49903 -7.05464 21064 ft 453 kts 160°
2026-05-04 20:33 61.47121 -7.02312 21517 ft 457 kts 160°
2026-05-04 20:33 61.44305 -6.99131 21980 ft 461 kts 160°
2026-05-04 20:34 61.41471 -6.95946 22431 ft 465 kts 160°
2026-05-04 20:34 61.38611 -6.92742 22879 ft 468 kts 160°
2026-05-04 20:34 61.35727 -6.89514 23323 ft 472 kts 160°
2026-05-04 20:34 61.32823 -6.86264 23742 ft 475 kts 160°
2026-05-04 20:35 61.29899 -6.82999 24113 ft 478 kts 160°
2026-05-04 20:35 61.27002 -6.79768 24495 ft 480 kts 160°
2026-05-04 20:35 61.24055 -6.76486 24885 ft 481 kts 160°
2026-05-04 20:35 61.21100 -6.73203 25265 ft 483 kts 160°
2026-05-04 20:36 61.18132 -6.69917 25636 ft 484 kts 160°
2026-05-04 20:36 61.15154 -6.66628 26005 ft 485 kts 160°
2026-05-04 20:36 61.12166 -6.63340 26359 ft 487 kts 160°
2026-05-04 20:36 61.09171 -6.60052 26709 ft 488 kts 160°
2026-05-04 20:37 61.06168 -6.56757 27066 ft 489 kts 160°
2026-05-04 20:37 61.03138 -6.53584 27409 ft 486 kts 165°
2026-05-04 20:37 60.99995 -6.51223 27753 ft 476 kts 174°
2026-05-04 20:37 60.96792 -6.49790 28088 ft 466 kts 182°
2026-05-04 20:38 60.93591 -6.49213 28408 ft 460 kts 187°
2026-05-04 20:38 60.90389 -6.48842 28726 ft 461 kts 187°
2026-05-04 20:38 60.87180 -6.48456 29033 ft 463 kts 187°
2026-05-04 20:38 60.84003 -6.48063 29332 ft 464 kts 186°
2026-05-04 20:39 60.80780 -6.47661 29618 ft 465 kts 186°
2026-05-04 20:39 60.77542 -6.47263 29903 ft 466 kts 186°
2026-05-04 20:39 60.74300 -6.46866 30163 ft 468 kts 186°
2026-05-04 20:39 60.71048 -6.46467 30381 ft 469 kts 186°
2026-05-04 20:40 60.67785 -6.46069 30588 ft 470 kts 186°
2026-05-04 20:40 60.64511 -6.45671 30783 ft 472 kts 186°
2026-05-04 20:40 60.61225 -6.45275 30997 ft 472 kts 186°
2026-05-04 20:40 60.57950 -6.44875 31276 ft 471 kts 185°
2026-05-04 20:41 60.54681 -6.44479 31553 ft 470 kts 185°
2026-05-04 20:41 60.51413 -6.44091 31826 ft 470 kts 185°
2026-05-04 20:41 60.48153 -6.43711 32104 ft 469 kts 185°
2026-05-04 20:41 60.44890 -6.43328 32377 ft 468 kts 185°
2026-05-04 20:42 60.41642 -6.42939 32653 ft 468 kts 185°
2026-05-04 20:42 60.38438 -6.42553 32925 ft 467 kts 185°
2026-05-04 20:42 60.35202 -6.42159 33200 ft 466 kts 185°
2026-05-04 20:42 60.31969 -6.41766 33474 ft 465 kts 185°
2026-05-04 20:43 60.28738 -6.41378 33750 ft 464 kts 185°
2026-05-04 20:43 60.25511 -6.40994 34023 ft 464 kts 185°
2026-05-04 20:43 60.22296 -6.40619 34266 ft 463 kts 185°
2026-05-04 20:43 60.19085 -6.40253 34483 ft 462 kts 185°
2026-05-04 20:44 60.15875 -6.39885 34694 ft 462 kts 184°
2026-05-04 20:44 60.12662 -6.39399 34878 ft 466 kts 179°
2026-05-04 20:44 60.09455 -6.38087 35057 ft 475 kts 170°
2026-05-04 20:44 60.06282 -6.36218 35234 ft 475 kts 170°
2026-05-04 20:45 60.03114 -6.34343 35408 ft 476 kts 170°
2026-05-04 20:45 59.99936 -6.32460 35594 ft 475 kts 169°
2026-05-04 20:45 59.96767 -6.30592 35763 ft 475 kts 169°
2026-05-04 20:45 59.93595 -6.28731 35935 ft 475 kts 169°
2026-05-04 20:46 59.90426 -6.26880 36095 ft 475 kts 169°
2026-05-04 20:46 59.87296 -6.25053 36257 ft 475 kts 169°
2026-05-04 20:46 59.84124 -6.23213 36409 ft 475 kts 169°
2026-05-04 20:46 59.80955 -6.21383 36557 ft 475 kts 169°
2026-05-04 20:47 59.77782 -6.19556 36707 ft 475 kts 169°
2026-05-04 20:47 59.74608 -6.17733 36850 ft 474 kts 169°
2026-05-04 20:47 59.71442 -6.15913 37014 ft 474 kts 169°
2026-05-04 20:47 59.68274 -6.14091 37073 ft 474 kts 169°
2026-05-04 20:48 59.61938 -6.10443 37067 ft 474 kts 169°
2026-05-04 20:48 59.55608 -6.06826 37067 ft 473 kts 169°
2026-05-04 20:49 59.49291 -6.03224 37060 ft 473 kts 169°
2026-05-04 20:49 59.43009 -5.99652 37056 ft 472 kts 169°
2026-05-04 20:50 59.36695 -5.96085 37061 ft 472 kts 169°
2026-05-04 20:50 59.30374 -5.92526 37061 ft 472 kts 169°
2026-05-04 20:51 59.24058 -5.89000 37064 ft 472 kts 169°
2026-05-04 20:51 59.17749 -5.85483 37061 ft 471 kts 169°
2026-05-04 20:52 59.11450 -5.81964 37059 ft 471 kts 169°
2026-05-04 20:52 59.05152 -5.78469 37059 ft 470 kts 169°
2026-05-04 20:53 58.98902 -5.75026 37060 ft 470 kts 169°
2026-05-04 20:53 58.92617 -5.71571 37054 ft 469 kts 169°
2026-05-04 20:54 58.86332 -5.68132 37049 ft 469 kts 169°
2026-05-04 20:54 58.80055 -5.64709 37050 ft 468 kts 169°
2026-05-04 20:55 58.73788 -5.61300 37039 ft 468 kts 169°
2026-05-04 20:55 58.67528 -5.57911 37039 ft 467 kts 169°
2026-05-04 20:56 58.61274 -5.54530 37043 ft 467 kts 169°
2026-05-04 20:56 58.55023 -5.51161 37044 ft 466 kts 169°
2026-05-04 20:57 58.48779 -5.47819 37044 ft 466 kts 169°
2026-05-04 20:57 58.42538 -5.44486 37042 ft 466 kts 169°
2026-05-04 20:58 58.36341 -5.41186 37043 ft 465 kts 169°
2026-05-04 20:58 58.30105 -5.37880 37043 ft 465 kts 169°
2026-05-04 20:59 58.23870 -5.34599 37044 ft 465 kts 169°
2026-05-04 20:59 58.17638 -5.31321 37040 ft 464 kts 169°
2026-05-04 21:00 58.11416 -5.28065 37044 ft 464 kts 169°
2026-05-04 21:00 58.05190 -5.24827 37040 ft 464 kts 169°
2026-05-04 21:01 57.98970 -5.21592 37039 ft 463 kts 169°
2026-05-04 21:01 57.92752 -5.18368 37044 ft 463 kts 169°
2026-05-04 21:02 57.86538 -5.15203 37035 ft 462 kts 171°
2026-05-04 21:02 57.80337 -5.12316 37038 ft 462 kts 171°
2026-05-04 21:03 57.74094 -5.09495 37045 ft 462 kts 171°
2026-05-04 21:03 57.67854 -5.06630 37046 ft 462 kts 171°
2026-05-04 21:04 57.61616 -5.03729 37043 ft 462 kts 171°
2026-05-04 21:04 57.55379 -5.00826 37044 ft 461 kts 171°
2026-05-04 21:05 57.49143 -4.97930 37052 ft 462 kts 171°
2026-05-04 21:05 57.42906 -4.95070 37048 ft 461 kts 171°
2026-05-04 21:06 57.36721 -4.92251 37042 ft 461 kts 171°
2026-05-04 21:06 57.30493 -4.89414 37047 ft 461 kts 171°
2026-05-04 21:07 57.24271 -4.86580 37048 ft 460 kts 171°
2026-05-04 21:07 57.18058 -4.83770 37047 ft 460 kts 171°
2026-05-04 21:08 57.11843 -4.80966 37048 ft 459 kts 171°
2026-05-04 21:08 57.05647 -4.78188 37049 ft 458 kts 171°
2026-05-04 21:09 56.99447 -4.75416 37053 ft 458 kts 171°
2026-05-04 21:09 56.93255 -4.72655 37052 ft 458 kts 171°
2026-05-04 21:10 56.87071 -4.69905 37055 ft 457 kts 171°
2026-05-04 21:10 56.80885 -4.67159 37051 ft 457 kts 171°
2026-05-04 21:11 56.74712 -4.64436 37057 ft 457 kts 171°
2026-05-04 21:11 56.68574 -4.61739 37056 ft 456 kts 171°
2026-05-04 21:12 56.62402 -4.59038 37052 ft 456 kts 171°
2026-05-04 21:12 56.56241 -4.56333 37057 ft 456 kts 170°
2026-05-04 21:13 56.50073 -4.53647 37054 ft 455 kts 170°
2026-05-04 21:13 56.43917 -4.50973 37054 ft 455 kts 171°
2026-05-04 21:14 56.37764 -4.48313 37056 ft 455 kts 171°
2026-05-04 21:14 56.31613 -4.45667 37053 ft 454 kts 171°
2026-05-04 21:15 56.25465 -4.43022 37058 ft 454 kts 170°
2026-05-04 21:15 56.19319 -4.40380 37063 ft 454 kts 170°
2026-05-04 21:16 56.13177 -4.37759 37071 ft 454 kts 171°
2026-05-04 21:16 56.07029 -4.35169 37079 ft 453 kts 171°
2026-05-04 21:17 56.00882 -4.32628 37086 ft 453 kts 171°
2026-05-04 21:17 55.94740 -4.30093 37092 ft 453 kts 171°
2026-05-04 21:18 55.88641 -4.27566 37091 ft 453 kts 171°
2026-05-04 21:18 55.82499 -4.25015 37082 ft 453 kts 171°
2026-05-04 21:19 55.76359 -4.22491 37087 ft 453 kts 171°
2026-05-04 21:19 55.70220 -4.19968 37084 ft 453 kts 171°
2026-05-04 21:20 55.64076 -4.17446 37079 ft 453 kts 171°
2026-05-04 21:20 55.57929 -4.14945 37079 ft 453 kts 171°
2026-05-04 21:21 55.51791 -4.12448 37078 ft 453 kts 170°
2026-05-04 21:21 55.45645 -4.09961 37081 ft 453 kts 170°
2026-05-04 21:22 55.39501 -4.07485 37078 ft 453 kts 170°
2026-05-04 21:22 55.33357 -4.05022 37078 ft 453 kts 170°
2026-05-04 21:23 55.27257 -4.02559 37080 ft 453 kts 170°
2026-05-04 21:23 55.21118 -4.00094 37080 ft 453 kts 170°
2026-05-04 21:24 55.14983 -3.97646 37080 ft 452 kts 170°
2026-05-04 21:24 55.08840 -3.95208 37077 ft 452 kts 170°
2026-05-04 21:25 55.02701 -3.92783 37081 ft 452 kts 169°
2026-05-04 21:25 54.96562 -3.90356 37079 ft 452 kts 169°
2026-05-04 21:26 54.90430 -3.87943 37078 ft 452 kts 169°
2026-05-04 21:26 54.85328 -3.85944 37080 ft 452 kts 169°
2026-05-04 21:27 54.79195 -3.83546 37082 ft 452 kts 169°
2026-05-04 21:27 54.73062 -3.81141 37088 ft 452 kts 169°
2026-05-04 21:28 54.66930 -3.78748 37087 ft 451 kts 169°
2026-05-04 21:28 54.60804 -3.76365 37089 ft 451 kts 169°
2026-05-04 21:29 54.54724 -3.74011 37091 ft 451 kts 169°
2026-05-04 21:29 54.48603 -3.71666 37095 ft 450 kts 169°
2026-05-04 21:30 54.42490 -3.69330 37090 ft 450 kts 168°
2026-05-04 21:30 54.36387 -3.66988 37096 ft 449 kts 168°
2026-05-04 21:31 54.27243 -3.63486 37094 ft 449 kts 168°
2026-05-04 21:32 54.21150 -3.61164 37090 ft 449 kts 168°
2026-05-04 21:32 54.15052 -3.58848 37088 ft 448 kts 168°
2026-05-04 21:33 54.08956 -3.56536 37088 ft 448 kts 168°
2026-05-04 21:33 54.02869 -3.54256 37090 ft 448 kts 168°
2026-05-04 21:34 53.96784 -3.51975 37090 ft 447 kts 168°
2026-05-04 21:34 53.90746 -3.49719 37093 ft 447 kts 168°
2026-05-04 21:35 53.84651 -3.47587 37091 ft 447 kts 170°
2026-05-04 21:35 53.78519 -3.45819 37094 ft 447 kts 171°
2026-05-04 21:36 53.72376 -3.44124 37096 ft 447 kts 171°
2026-05-04 21:36 53.66236 -3.42361 37092 ft 447 kts 170°
2026-05-04 21:37 53.60108 -3.40565 37093 ft 447 kts 170°
2026-05-04 21:37 53.53973 -3.38756 37096 ft 447 kts 169°
2026-05-04 21:38 53.47835 -3.36963 37100 ft 448 kts 169°
2026-05-04 21:38 53.41695 -3.35186 37101 ft 448 kts 169°
2026-05-04 21:39 53.35549 -3.33404 37102 ft 448 kts 169°
2026-05-04 21:39 53.29447 -3.31639 37104 ft 448 kts 169°
2026-05-04 21:40 53.23305 -3.29878 36464 ft 449 kts 169°
2026-05-04 21:40 53.20230 -3.29002 35857 ft 446 kts 169°
2026-05-04 21:40 53.17152 -3.28123 34981 ft 451 kts 168°
2026-05-04 21:40 53.14056 -3.27239 34285 ft 452 kts 168°
2026-05-04 21:41 53.10972 -3.26360 33717 ft 448 kts 168°
2026-05-04 21:41 53.07917 -3.25484 33155 ft 443 kts 168°
2026-05-04 21:41 53.04888 -3.24616 32600 ft 439 kts 168°
2026-05-04 21:41 53.01887 -3.23760 32051 ft 436 kts 168°
2026-05-04 21:42 52.98914 -3.22914 31506 ft 432 kts 167°
2026-05-04 21:42 52.95953 -3.22075 30965 ft 429 kts 167°
2026-05-04 21:42 52.93017 -3.21244 30434 ft 426 kts 167°
2026-05-04 21:42 52.90104 -3.20420 29864 ft 424 kts 167°
2026-05-04 21:43 52.87215 -3.19604 29347 ft 419 kts 168°
2026-05-04 21:43 52.84360 -3.18800 28833 ft 414 kts 168°
2026-05-04 21:43 52.81534 -3.18005 28330 ft 409 kts 168°
2026-05-04 21:43 52.78738 -3.17218 27838 ft 405 kts 169°
2026-05-04 21:44 52.76013 -3.16450 27373 ft 400 kts 169°
2026-05-04 21:44 52.73248 -3.15671 26901 ft 396 kts 169°
2026-05-04 21:44 52.70551 -3.14911 26452 ft 391 kts 170°
2026-05-04 21:44 52.67912 -3.14170 26009 ft 387 kts 171°
2026-05-04 21:45 52.65273 -3.13433 25571 ft 383 kts 171°
2026-05-04 21:45 52.62655 -3.12708 25129 ft 380 kts 172°
2026-05-04 21:45 52.60060 -3.11989 24683 ft 377 kts 172°
2026-05-04 21:45 52.57482 -3.11270 24243 ft 374 kts 172°
2026-05-04 21:46 52.54929 -3.10553 23780 ft 371 kts 172°
2026-05-04 21:46 52.52391 -3.09844 23283 ft 369 kts 173°
2026-05-04 21:46 52.49876 -3.09147 22830 ft 364 kts 172°
2026-05-04 21:46 52.47388 -3.08463 22381 ft 361 kts 172°
2026-05-04 21:47 52.44923 -3.07785 21940 ft 357 kts 172°
2026-05-04 21:47 52.42483 -3.07110 21495 ft 354 kts 172°
2026-05-04 21:47 52.40061 -3.06443 21054 ft 351 kts 172°
2026-05-04 21:47 52.37661 -3.05783 20615 ft 349 kts 172°
2026-05-04 21:48 52.35273 -3.05126 20178 ft 346 kts 172°
2026-05-04 21:48 52.32906 -3.04472 19747 ft 344 kts 172°
2026-05-04 21:48 52.30547 -3.03820 19314 ft 343 kts 171°
2026-05-04 21:48 52.28202 -3.03173 18888 ft 341 kts 171°
2026-05-04 21:49 52.25863 -3.02530 18461 ft 340 kts 171°
2026-05-04 21:49 52.23532 -3.01887 17997 ft 339 kts 171°
2026-05-04 21:49 52.21215 -3.01249 17577 ft 336 kts 171°
2026-05-04 21:49 52.18913 -3.00616 17170 ft 334 kts 171°
2026-05-04 21:50 52.16636 -2.99993 17054 ft 331 kts 171°
2026-05-04 21:50 52.14386 -2.99382 16500 ft 337 kts 171°
2026-05-04 21:50 52.12034 -2.99006 15947 ft 339 kts 181°
2026-05-04 21:50 52.09717 -2.99191 15859 ft 330 kts 184°
2026-05-04 21:51 52.07437 -2.99377 15767 ft 327 kts 183°
2026-05-04 21:51 52.05167 -2.99553 15638 ft 326 kts 183°
2026-05-04 21:51 52.02900 -2.99726 15508 ft 326 kts 183°
2026-05-04 21:51 52.00640 -2.99899 15381 ft 325 kts 183°
2026-05-04 21:52 51.98378 -3.00078 15254 ft 325 kts 183°
2026-05-04 21:52 51.96120 -3.00259 15115 ft 325 kts 183°
2026-05-04 21:52 51.93866 -3.00466 14908 ft 325 kts 185°
2026-05-04 21:52 51.91616 -3.00783 14555 ft 323 kts 186°
2026-05-04 21:53 51.89385 -3.01166 14230 ft 322 kts 187°
2026-05-04 21:53 51.87165 -3.01571 13909 ft 320 kts 187°
2026-05-04 21:53 51.84954 -3.01970 13562 ft 319 kts 187°
2026-05-04 21:53 51.82753 -3.02357 13243 ft 317 kts 187°
2026-05-04 21:54 51.80561 -3.02731 12929 ft 316 kts 186°
2026-05-04 21:54 51.78412 -3.03092 12615 ft 314 kts 186°
2026-05-04 21:54 51.76245 -3.03455 12300 ft 312 kts 187°
2026-05-04 21:54 51.74137 -3.04229 11989 ft 310 kts 200°
2026-05-04 21:55 51.72278 -3.05906 11681 ft 307 kts 221°
2026-05-04 21:55 51.70727 -3.08262 11382 ft 306 kts 225°
2026-05-04 21:55 51.69264 -3.10716 11079 ft 299 kts 228°
2026-05-04 21:55 51.67919 -3.13190 10581 ft 290 kts 229°
2026-05-04 21:56 51.66628 -3.15664 9978 ft 287 kts 230°
2026-05-04 21:56 51.65361 -3.18118 9298 ft 284 kts 230°
2026-05-04 21:56 51.64104 -3.20552 8602 ft 282 kts 230°
2026-05-04 21:56 51.62852 -3.22959 7909 ft 280 kts 231°
2026-05-04 21:57 51.61600 -3.25349 7220 ft 279 kts 231°
2026-05-04 21:57 51.60349 -3.27722 6525 ft 278 kts 231°
2026-05-04 21:57 51.59098 -3.30089 5801 ft 277 kts 230°
2026-05-04 21:57 51.57850 -3.32435 5109 ft 275 kts 230°
2026-05-04 21:58 51.56612 -3.34757 4462 ft 271 kts 230°
2026-05-04 21:58 51.55400 -3.37031 4003 ft 268 kts 229°
2026-05-04 21:58 51.54188 -3.39307 3552 ft 268 kts 229°
2026-05-04 21:58 51.52996 -3.41548 3393 ft 256 kts 229°
2026-05-04 21:59 51.51881 -3.43634 3322 ft 243 kts 229°
2026-05-04 21:59 51.50811 -3.45634 3222 ft 230 kts 229°
2026-05-04 21:59 51.49806 -3.47516 3101 ft 214 kts 229°
2026-05-04 21:59 51.48855 -3.49298 2782 ft 208 kts 229°
2026-05-04 22:00 51.47852 -3.50936 2405 ft 204 kts 209°
2026-05-04 22:00 51.46562 -3.51548 2204 ft 185 kts 175°
2026-05-04 22:00 51.45382 -3.51059 2256 ft 170 kts 147°
2026-05-04 22:00 51.44543 -3.49822 2146 ft 162 kts 120°
2026-05-04 22:01 51.44026 -3.48236 1976 ft 159 kts 114°
2026-05-04 22:01 51.43547 -3.46704 1788 ft 146 kts 114°
2026-05-04 22:01 51.43101 -3.45280 1592 ft 140 kts 114°
2026-05-04 22:01 51.42668 -3.43898 1409 ft 138 kts 114°
2026-05-04 22:02 51.42237 -3.42524 1317 ft 138 kts 115°
2026-05-04 22:02 51.41802 -3.41153 1025 ft 138 kts 115°
2026-05-04 22:02 51.41371 -3.39769 838 ft 140 kts 116°
2026-05-04 22:02 51.40933 -3.38378 628 ft 140 kts 115°
2026-05-04 22:03 51.40494 -3.36993 455 ft 140 kts 114°
2026-05-04 22:03 51.40061 -3.35601 260 ft 140 kts 113°
2026-05-04 22:03 51.39673 -3.34360 223 ft 97 kts 117°
2026-05-04 22:03 51.39474 -3.33735 222 ft 49 kts 117°
2026-05-04 22:04 51.39345 -3.33331 223 ft 29 kts 117°
2026-05-04 22:04 51.39293 -3.33165 222 ft 6 kts 106°
2026-05-04 22:04 51.39305 -3.33110 224 ft 4 kts 52°
2026-05-04 22:04 51.39328 -3.33087 222 ft 6 kts 28°
2026-05-04 22:05 51.39383 -3.33042 222 ft 13 kts 25°
2026-05-04 22:05 51.39464 -3.33124 221 ft 17 kts 297°
2026-05-04 22:05 51.39520 -3.33297 221 ft 19 kts 296°
2026-05-04 22:05 51.39583 -3.33496 220 ft 21 kts 298°
2026-05-04 22:06 51.39643 -3.33683 222 ft 7 kts 302°
2026-05-04 22:06 51.39677 -3.33698 221 ft 4 kts 11°
2026-05-04 22:06 51.39701 -3.33682 221 ft 3 kts 25°
2026-05-04 22:06 51.39743 -3.33648 221 ft 6 kts 24°
2026-05-04 22:07 51.39757 -3.33663 221 ft 0 kts 297°
2026-05-04 22:07 51.39758 -3.33668 221 ft 1 kts 295°
2026-05-04 22:07 51.39767 -3.33697 222 ft 3 kts 297°
2026-05-04 22:07 51.39775 -3.33724 222 ft 2 kts 297°
2026-05-04 22:08 51.39780 -3.33737 221 ft 0 kts 297°